Location: Unspecified
(42.3650°N, 71.1030°W)
Time: 11:56:50
(UTC+00:00)

Explorer 11/Cluster Stage 4 - Pass Details

Date: 26 June 2024
Orbit: 465 x 1215 km, 28.8° (Epoch: 19 July)

Event Time Altitude Azimuth Distance (km) Brightness Sun altitude
Rises 02:13:32 0° 253° (WSW) 4,100 10.5 -15.3°
Reaches altitude 10° 02:16:51 10° 242° (WSW) 3,157 9.8 -15.7°
Maximum altitude 02:23:22 28° 188° (S) 2,072 8.3 -16.4°
Enters shadow 02:26:01 23° 158° (SSE) 2,253 8.3 -16.6°
Drops below altitude 10° 02:29:37 10° 133° (SE) 3,005 - -17.0°
Sets 02:32:42 0° 122° (ESE) 3,872 - -17.3°
